This is the latest recevied weather packets stored in our database for station/object N2KI-13. If no packets are shown the sender has not sent any weather packets the latest 10 day(s).
| Time | Temp. | Humidity | Pressure | Rain* | Wind** | Luminosity | Snow |
|---|---|---|---|---|---|---|---|
| 1777187104 | 5° C | 91% | 1017.9 hPa | 0.25 mm | - | - | - |
| 1777186504 | 5° C | 91% | 1017.7 hPa | 0.25 mm | - | - | - |
| 1777185304 | 5° C | 91% | 1017.9 hPa | 0.25 mm | - | - | - |
| 1777183203 | 5° C | 91% | 1018.2 hPa | 0.25 mm | - | - | - |
| 1777182003 | 5° C | 91% | 1018.2 hPa | 0.25 mm | - | - | - |
| 1777180504 | 5° C | 91% | 1018.4 hPa | 0.51 mm | - | - | - |
| 1777178104 | 5° C | 91% | 1018.5 hPa | 0.76 mm | - | - | - |
| 1777171205 | 5° C | 90% | 1018.6 hPa | 0.51 mm | - | - | - |
| 1777169704 | 5° C | 90% | 1018.7 hPa | 1.02 mm | - | - | - |
| 1777169404 | 5° C | 90% | 1018.7 hPa | 1.27 mm | - | - | - |
| 1777168505 | 5° C | 90% | 1018.6 hPa | 1.78 mm | - | - | - |
| 1777167304 | 5° C | 90% | 1018.5 hPa | 3.05 mm | - | - | - |
| 1777166704 | 5° C | 90% | 1018.5 hPa | 3.3 mm | - | - | - |
| 1777166104 | 5° C | 90% | 1018.5 hPa | 3.81 mm | - | - | - |
| 1777164005 | 5° C | 89% | 1018.3 hPa | 3.56 mm | - | - | - |
| 1777159504 | 5° C | 89% | 1016.9 hPa | 3.05 mm | - | - | - |
| 1777155604 | 5.56° C | 88% | 1016.2 hPa | 1.78 mm | - | - | - |
| 1777150504 | 5° C | 87% | 1016 hPa | 2.29 mm | - | - | - |
| 1777150204 | 5° C | 87% | 1016 hPa | 2.29 mm | - | - | - |
| 1777149604 | 5° C | 87% | 1016.1 hPa | 2.03 mm | - | - | - |
| 1777145703 | 5.56° C | 86% | 1016.7 hPa | 1.52 mm | - | - | - |
* Rain latest hour (hover to see other rain measurements)
** Current wind speed in m/s (hover to see current wind gust speed)